Weather in Stepantsi

Ukraine / Cherkassi District     49°42′29″N   31°17′59″E
temp.,
°C
wind,
m/s
gust,
m/s
humid.,
%
clouds,
%
prec.,
mm/h
press.,
hPa
HPBL,
m
17 october, sun
sun1700:00+7nw248593 0.0 101991
03:00+6nnw3592100 0.0 101987
06:00+6nnw359647 0.0 1020102
09:00+7nnw368439 0.0 1020229
12:00+11nnw34565 0.0 10201027
15:00+13nw344811 0.0 10191394
18:00+8nnw336533 0.0 102027
21:00+6wnw227067 0.0 102031
18 october, mon
mon1800:00+5nw327770 0.0 102135
03:00+4wnw347699 0.0 102169
06:00+3w367983 0.0 1021120
09:00+5w486787 0.0 1021253
12:00+10w5851100 0.0 1020913
15:00+11wnw6950100 0.0 10191575
18:00+9wnw5863100 0.0 1020907
21:00+8wnw587396 0.0 1020674
19 october, tue
tue1900:00+6w51085100 0.1 1020391
03:00+7nw388895 0.4 1020801
06:00+4nw510910 0.3 1022355
09:00+4nw510780 0.3 1025445
12:00+8nnw68493 0.0 10251208
15:00+10nw68375 0.0 10251516
18:00+6nw35485 0.0 102678
21:00+4nw335585 0.0 102747
20 october, wed
wed2000:00+3wnw235894 0.0 102832
03:00+3w225892 0.0 102827
06:00+3w2257100 0.0 102821
09:00+4sw235562 0.0 1028117
12:00+10ssw4536100 0.0 1026635
15:00+13ssw673529 0.0 1024871
18:00+9s4956100 0.0 1023151
21:00+9s51362100 0.0 1021302
21 october, thu
thu2100:00+9ssw61465100 0.0 1020386
03:00+10ssw6147175 0.0 1019400
06:00+8ssw61386100 0.0 1018328
09:00+9ssw61384100 0.0 1017415
12:00+13ssw81265100 0.0 1016635
15:00+16ssw81354100 0.0 1014875
18:00+14ssw61353100 0.0 1012431
21:00+12ssw41263100 0.0 1012239